Location: Austin
(30.3000°N, 97.7500°W)
Time: 04:12:01
(UTC-05:00)

SeaSat 1 - Pass Details

Date: 01 October 2024
Orbit: 739 x 742 km, 108.0° (Epoch: 06 October)

Event Time Altitude Azimuth Distance (km) Brightness Sun altitude
Rises 21:25:03 0° 9° (N) 3,182 5.8 -28.6°
Reaches altitude 10° 21:27:36 10° 357° (N) 2,255 5.1 -29.1°
Maximum altitude 21:31:39 27° 301° (WNW) 1,407 4.4 -30.0°
Drops below altitude 10° 21:35:42 10° 245° (WSW) 2,245 5.5 -30.8°
Sets 21:38:15 0° 233° (SW) 3,164 6.2 -31.4°
